EW5191 Weather Reports


Display with metric or nautical units.
time (UTC)temp
F
wind
direction
speed
MPH
gust
MPH
rain 1hr
in
rain 24hr
in
rain mn
in
humidity
%
barometer
mb
20260906223058 92 163 4.0 12.0 0.00 0.00 0.00 16 1002.9
20260906221544 91 201 3.0 9.0 0.00 0.00 0.00 17 1003.2
20260906220046 92 140 8.0 15.0 0.00 0.00 0.00 17 1003.5
20260906214557 92 232 8.0 15.0 0.00 0.00 0.00 16 1003.7
20260906213040 91 158 7.0 17.0 0.00 0.00 0.00 16 1003.8
20260906211543 91 147 11.0 17.0 0.00 0.00 0.00 16 1004.1
20260906204536 91 99 4.0 14.0 0.00 0.00 0.00 20 1004.1
20260906203039 92 61 4.0 10.0 0.00 0.00 0.00 19 1004.5
20260906201543 89 132 4.0 11.0 0.00 0.00 0.00 20 1005.0
20260906200027 89 144 7.0 11.0 0.00 0.00 0.00 21 1005.4
20260906194525 87 159 3.0 8.0 0.00 0.00 0.00 25 1005.6
20260906193025 86 123 0.0 4.0 0.00 0.00 0.00 27 1005.8
20260906191519 85 34 1.0 5.0 0.00 0.00 0.00 28 1006.1
20260906190015 83 206 2.0 7.0 0.00 0.00 0.00 30 1006.6
20260906184512 83 135 0.0 7.0 0.00 0.00 0.00 31 1006.9
20260906183009 82 152 1.0 9.0 0.00 0.00 0.00 33 1007.3
20260906181506 80 64 1.0 5.0 0.00 0.00 0.00 34 1007.7
20260906180004 79 36 0.0 4.0 0.00 0.00 0.00 35 1008.1
20260906174604 77 131 2.0 5.0 0.00 0.00 0.00 35 1008.5
20260906173100 77 92 0.0 4.0 0.00 0.00 0.00 39 1008.8
20260906171555 76 151 3.0 5.0 0.00 0.00 0.00 39 1009.0
20260906170052 75 116 0.0 4.0 0.00 0.00 0.00 40 1009.3
20260906164551 74 125 3.0 6.0 0.00 0.00 0.00 41 1009.6
20260906163055 72 134 0.0 5.0 0.00 0.00 0.00 42 1009.9
20260906161546 72 135 0.0 4.0 0.00 0.00 0.00 42 1010.2
20260906160045 70 26 0.0 2.0 0.00 0.00 0.00 42 1010.4
20260906154545 69 232 0.0 2.0 0.00 0.00 0.00 42 1010.5
20260906153102 66 149 0.0 3.0 0.00 0.00 0.00 44 1010.5
20260906151552 63 175 1.0 3.0 0.00 0.00 0.00 46 1010.6
20260906150041 62 137 1.0 4.0 0.00 0.00 0.00 48 1010.8
20260906144541 60 131 0.0 2.0 0.00 0.00 0.00 51 1011.1
20260906143043 58 145 1.0 3.0 0.00 0.00 0.00 53 1011.1
20260906141536 57 124 0.0 1.0 0.00 0.00 0.00 53 1011.2
20260906140036 55 229 0.0 0.0 0.00 0.00 0.00 58 1011.3
20260906134539 52 229 0.0 1.0 0.00 0.00 0.00 61 1011.3
20260906133031 51 205 0.0 1.0 0.00 0.00 0.00 64 1011.2
20260906131528 50 254 0.0 0.0 0.00 0.00 0.00 60 1011.1
20260906130024 51 254 0.0 0.0 0.00 0.00 0.00 58 1010.9
20260906124524 54 130 0.0 2.0 0.00 0.00 0.00 56 1010.8
20260906123037 54 137 2.0 4.0 0.00 0.00 0.00 57 1010.8
20260906121522 54 132 2.0 4.0 0.00 0.00 0.00 55 1010.8
20260906120021 53 155 2.0 3.0 0.00 0.00 0.00 55 1010.8
20260906114523 54 148 2.0 3.0 0.00 0.00 0.00 55 1010.8
20260906113019 55 90 0.0 0.0 0.00 0.00 0.00 54 1010.7
20260906111521 56 139 0.0 1.0 0.00 0.00 0.00 57 1010.8
20260906110016 55 139 0.0 1.0 0.00 0.00 0.00 57 1010.6
20260906104512 57 128 0.0 1.0 0.00 0.00 0.00 53 1010.4
20260906103011 58 128 0.0 0.0 0.00 0.00 0.00 54 1010.1
20260906101519 57 128 0.0 0.0 0.00 0.00 0.00 56 1010.0
20260906100007 57 128 0.0 0.0 0.00 0.00 0.00 55 1009.9
20260906094505 57 128 0.0 0.0 0.00 0.00 0.00 53 1009.9
20260906093004 60 128 0.0 1.0 0.00 0.00 0.00 51 1009.8
20260906091502 59 128 0.0 1.0 0.00 0.00 0.00 53 1009.8
20260906090116 61 73 0.0 2.0 0.00 0.00 0.00 50 1009.7
20260906084557 62 219 1.0 3.0 0.00 0.00 0.00 48 1009.6
20260906083055 62 139 0.0 1.0 0.00 0.00 0.00 48 1009.7
20260906081557 63 174 1.0 1.0 0.00 0.00 0.00 47 1009.5
20260906080110 62 211 1.0 1.0 0.00 0.00 0.00 47 1009.5
20260906074606 63 256 0.0 1.0 0.00 0.00 0.00 47 1009.4
20260906073106 62 232 0.0 0.0 0.00 0.00 0.00 47 1009.5
20260906071549 63 232 0.0 2.0 0.00 0.00 0.00 46 1009.4
20260906070046 65 242 0.0 2.0 0.00 0.00 0.00 44 1009.4
20260906064546 65 264 0.0 1.0 0.00 0.00 0.00 45 1009.3
20260906063048 65 202 0.0 1.0 0.00 0.00 0.00 44 1009.1
20260906061541 66 208 1.0 2.0 0.00 0.00 0.00 43 1009.0
20260906060036 67 222 0.0 1.0 0.00 0.00 0.00 41 1008.9
20260906054538 68 170 0.0 2.0 0.00 0.00 0.00 41 1009.0
20260906053036 70 147 1.0 4.0 0.00 0.00 0.00 39 1008.9
20260906051552 70 129 1.0 2.0 0.00 0.00 0.00 38 1008.8
20260906050040 71 125 0.0 2.0 0.00 0.00 0.00 38 1008.8
20260906044544 72 123 0.0 1.0 0.00 0.00 0.00 37 1008.6
20260906043046 72 123 0.0 2.0 0.00 0.00 0.00 37 1008.3
20260906041535 72 142 1.0 2.0 0.00 0.00 0.00 36 1008.2
20260906040038 73 220 0.0 0.0 0.00 0.00 0.00 36 1007.9
20260906034540 73 335 0.0 1.0 0.00 0.00 0.00 36 1007.6
20260906033035 76 334 3.0 6.0 0.00 0.00 0.00 33 1007.4
20260906031539 77 360 6.0 11.0 0.00 0.00 0.00 33 1007.1
20260906030034 78 336 4.0 13.0 0.00 0.00 0.00 32 1007.1
20260906024633 78 347 8.0 17.0 0.00 0.00 0.00 31 1006.8
20260906023032 79 355 15.0 20.0 0.00 0.00 0.00 31 1006.3
20260906021531 83 19 0.0 3.0 0.00 0.00 0.00 21 1005.8
20260906020030 82 156 3.0 3.0 0.00 0.00 0.00 23 1005.4
20260906014532 84 165 3.0 4.0 0.00 0.00 0.00 23 1005.3
20260906013044 86 137 3.0 7.0 0.00 0.00 0.00 22 1005.1
20260906011529 87 146 4.0 7.0 0.00 0.00 0.00 21 1005.2
20260906010030 90 198 6.0 8.0 0.00 0.00 0.00 19 1005.2
20260906004529 91 161 6.0 11.0 0.00 0.00 0.00 19 1005.1
20260906003028 92 159 5.0 12.0 0.00 0.00 0.00 19 1005.2
20260906001527 92 215 5.0 12.0 0.00 0.00 0.00 19 1005.2
20260906000027 92 157 9.0 15.0 0.00 0.00 0.00 19 1005.2
20260905234527 92 112 3.0 15.0 0.00 0.00 0.00 19 1005.2
20260905233026 92 200 7.0 11.0 0.00 0.00 0.00 19 1005.2
20260905231528 91 149 6.0 10.0 0.00 0.00 0.00 20 1005.3
20260905230025 93 138 3.0 10.0 0.00 0.00 0.00 20 1005.2
20260905224523 92 156 9.0 13.0 0.00 0.00 0.00 19 1005.4